"2009-01-03 00:00:00",507241,13.74,303.5,6.824,1.47,14.66,104.9069,11.83,12.88,23.84,0,110.2,13.31,12.63,265.5
"2009-01-03 00:00:30",507242,13.44,296.3,4.507,1.191,12.22,104.9069,11.83,12.83,23.95,0,110.2,13.31,12.63,258.3
"2009-01-03 00:01:00",507243,15.77,305.2,6.268,1.099,14.71,104.9069,11.83,12.9,24.32,0,110.2,13.31,12.63,267.2
"2009-01-03 00:01:30",507244,14.99,302.1,6.425,1.375,14.08,104.9069,11.83,12.88,24.39,0,110.2,13.31,12.63,264.1
"2009-01-03 00:02:00",507245,15.25,308.1,4.144,0.83,16.08,104.9038,11.83,13.04,24.25,0,110.2,13.31,12.62,270.1
"2009-01-03 00:02:30",507246,15.28,307.3,5.845,1.369,14.95,104.899,11.81,12.97,24.13,0,110.2,13.31,12.61,269.3
"2009-01-03 00:03:00",507247,13.7,295.4,5.264,0.932,11.8,104.8959,11.81,12.76,23.92,0,110.2,13.31,12.60,257.4
"2009-01-03 00:03:30",507248,12.55,295.8,2.346,0.362,11.16,104.8957,11.81,12.71,24.02,0,110.2,13.35,12.60,257.8
"2009-01-03 00:04:00",507249,13.4,302.5,6.845,1.378,14.06,104.8838,11.78,12.86,24.46,0,110.2,13.31,12.57,264.5
"2009-01-03 00:04:30",507250,13.66,305,7.273,1.486,14.5,104.8731,11.75,12.93,24.47,0,110.2,13.32,12.54,267.0
"2009-01-03 00:05:00",507251,12.43,306,6.104,1.453,14.73,104.8731,11.75,12.85,24.27,0,110.2,13.32,12.54,268.0
"2009-01-03 00:05:30",507252,12.66,306.1,6.085,1.085,14.83,104.8731,11.75,12.95,24.31,0,110.2,13.32,12.54,268.1
"2009-01-03 00:06:00",507253,11.71,302.5,7.981,1.394,13.92,104.8731,11.75,12.91,24.35,0,110.2,13.32,12.54,264.5
"2009-01-03 00:06:30",507254,11.58,299.4,4.766,1.039,12.13,104.8731,11.75,12.73,24.07,0,110.2,13.32,12.54,261.4
"2009-01-03 00:07:00",507255,12.11,298,1.494,0.392,11.05,104.8691,11.74,12.67,24.55,0,110.2,13.35,12.53,260.0
"2009-01-03 00:07:30",507256,13.44,304.9,6.29,1.449,14.42,104.8466,11.68,12.91,24.76,0,110.2,13.31,12.47,266.9
"2009-01-03 00:08:00",507257,13.52,306.5,6.37,1.22,15,104.8392,11.66,12.85,24.72,0,110.2,13.31,12.45,268.5
"2009-01-03 00:08:30",507258,13.39,308.8,5.936,1.227,14.88,104.8392,11.66,12.91,24.8,0,110.2,13.31,12.45,270.8
"2009-01-03 00:09:00",507259,12.2,304.7,6.165,1.404,13.74,104.8401,11.66,12.8,24.38,0,110.2,13.31,12.46,266.7
"2009-01-03 00:09:30",507260,11.69,302.2,6.658,1.376,13.7,104.8398,11.66,12.76,24.02,0,110.2,13.31,12.46,264.2
"2009-01-03 00:10:00",507261,9.23,288.9,3.912,0.696,11.49,104.8428,11.67,12.61,23.26,0,110.2,13.35,12.46,250.9
"2009-01-03 00:10:30",507262,11.28,289.1,5.452,1.647,13.52,104.8582,11.71,12.77,23.28,0,110.2,13.31,12.50,251.1
"2009-01-03 00:11:00",507263,11.46,299.3,7.763,1.177,13.64,104.8748,11.75,12.75,23.55,0,110.2,13.31,12.55,261.3
"2009-01-03 00:11:30",507264,11.3,297.3,8.84,1.41,14.42,104.8812,11.77,12.87,23.77,0,110.2,13.31,12.56,259.3
"2009-01-03 00:12:00",507265,12.32,306.1,7.662,1.53,15.19,104.8837,11.77,12.87,23.81,0,110.2,13.32,12.57,268.1
"2009-01-03 00:12:30",507266,10.33,293.3,8.79,1.124,12.85,104.8849,11.78,12.79,23.85,0,110.2,13.32,12.57,255.3
"2009-01-03 00:13:00",507267,11,298.1,7.328,0.928,13.35,104.8864,11.78,12.82,23.89,0,110.2,13.33,12.57,260.1
"2009-01-03 00:13:30",507268,9.91,298.2,2.104,0.529,10.76,104.8755,11.75,12.66,24.38,0,110.2,13.36,12.55,260.2
"2009-01-03 00:14:00",507269,11.3,306.6,8.73,1.212,13.52,104.8594,11.71,12.81,24.5,0,110.2,13.33,12.51,268.6
"2009-01-03 00:14:30",507270,11.37,307.3,6.6,1.362,13.95,104.8617,11.72,12.82,24.48,0,110.2,13.33,12.51,269.3
"2009-01-03 00:15:00",507271,11.52,307.8,7.5,1.26,15.07,104.8653,11.73,12.87,24.2,0,110.2,13.33,12.52,269.8
"2009-01-03 00:15:30",507272,10.41,300.2,7.318,1.313,13.5,104.8685,11.74,12.79,24.06,0,110.2,13.33,12.53,262.2
"2009-01-03 00:16:00",507273,9.51,295.9,6.228,1.062,12.14,104.8709,11.74,12.77,23.66,0,110.2,13.33,12.54,257.9
"2009-01-03 00:16:30",507274,10.14,304.2,5.442,1.65,13.49,104.8736,11.75,12.69,23.92,0,110.2,13.33,12.54,266.2
"2009-01-03 00:17:00",507275,8.21,298.3,2.82,0.26,11.17,104.8733,11.75,12.63,23.83,0,110.2,13.36,12.54,260.3
"2009-01-03 00:17:30",507276,9.02,305.2,5.161,1.419,12.84,104.8742,11.75,12.78,24.08,0,110.2,13.33,12.54,267.2
"2009-01-03 00:18:00",507277,10.55,306.6,6.199,1.27,14.45,104.8744,11.75,12.77,23.65,0,110.2,13.33,12.54,268.6
"2009-01-03 00:18:30",507278,10.4,304.3,7.804,1.152,14.86,104.8747,11.75,12.78,23.41,0,110.2,13.33,12.54,266.3
"2009-01-03 00:19:00",507279,9.14,305,4.239,1.458,14.21,104.8747,11.75,12.9,23.7,0,110.2,13.33,12.54,267.0
"2009-01-03 00:19:30",507280,8.79,298.5,11.02,1.056,12.23,104.8747,11.75,12.63,23.46,0,110.2,13.33,12.54,260.5
"2009-01-03 00:20:00",507281,9.24,298.1,6.793,1.176,13.88,104.8993,11.81,12.81,23.05,0,110.2,13.33,12.61,260.1
"2009-01-03 00:20:30",507282,8.42,300.2,3.681,0.709,11.3,104.9083,11.84,12.67,23.21,0,110.2,13.33,12.63,262.2
"2009-01-03 00:21:00",507283,9.78,298.8,5.275,1.466,13.22,104.9086,11.84,12.7,23.13,0,110.2,13.33,12.63,260.8
"2009-01-03 00:21:30",507284,9.46,298.6,8.97,1.076,13.29,104.9086,11.84,12.89,23.12,0,110.2,13.33,12.63,260.6
"2009-01-03 00:22:00",507285,9.81,303.5,9.15,1.249,15.14,104.9086,11.84,12.91,23.01,0,110.2,13.34,12.63,265.5
"2009-01-03 00:22:30",507286,9.12,301.4,6.523,1.524,14.22,104.923,11.88,12.88,22.85,0,110.2,13.33,12.67,263.4
"2009-01-03 00:23:00",507287,8.59,296.2,4.485,0.838,12.3,104.9385,11.91,12.86,22.73,0,110.2,13.34,12.71,258.2
"2009-01-03 00:23:30",507288,9.18,296.1,6.165,1.112,12.33,104.9425,11.93,12.9,23.02,0,110.2,13.33,12.72,258.1
"2009-01-03 00:24:00",507289,9.24,293.5,7.633,1.728,12.69,104.9419,11.92,12.74,22.78,0,110.2,13.33,12.72,255.5
"2009-01-03 00:24:30",507290,8.44,290.3,7.473,1.13,13.33,104.9422,11.92,12.89,22.91,0,110.2,13.33,12.72,252.3
"2009-01-03 00:25:00",507291,7.135,294,4.512,0.721,12.61,104.9425,11.93,12.9,22.6,0,110.1,13.33,12.72,256.0
"2009-01-03 00:25:30",507292,8.86,304.8,6.652,1.406,15.04,104.9425,11.93,12.94,22.7,0,110.2,13.33,12.72,266.8
"2009-01-03 00:26:00",507293,10.28,302.6,7.129,1.333,15.17,104.9425,11.93,13.03,22.64,0,110.2,13.33,12.72,264.6
"2009-01-03 00:26:30",507294,9.52,301.8,7.587,1.309,13.87,104.9425,11.93,13.02,22.66,0,110.2,13.33,12.72,263.8
"2009-01-03 00:27:00",507295,8.02,298.8,1.21,0.239,11.15,104.9425,11.93,12.8,22.68,0,110.2,13.36,12.72,260.8
"2009-01-03 00:27:30",507296,8.22,295,4.737,1.124,12.99,104.9425,11.93,12.98,22.67,0,110.2,13.33,12.72,257.0
"2009-01-03 00:28:00",507297,7.506,292.4,7.674,1.365,12.69,104.9433,11.93,12.85,22.15,0,110.2,13.33,12.72,254.4
"2009-01-03 00:28:30",507298,7.007,288.1,4.912,1.261,13.43,104.969,11.99,13.06,21.92,0,110.2,13.34,12.79,250.1
"2009-01-03 00:29:00",507299,6.977,285.6,7.798,1.383,13.3,104.9797,12.02,12.9,21.13,0,110.2,13.34,12.81,247.6
"2009-01-03 00:29:30",507300,6.314,293.2,9.81,1.345,14.08,105.0155,12.11,13.07,21.22,0,110.2,13.34,12.91,255.2
"2009-01-03 00:30:00",507301,8.59,304.6,6.73,1.539,13.69,105.044,12.19,13.13,21.84,0,110.2,13.34,12.98,266.6
"2009-01-03 00:30:30",507302,7.872,300.4,7.208,1.182,12.78,105.044,12.19,13.12,21.69,0,110.2,13.34,12.98,262.4
"2009-01-03 00:31:00",507303,7.582,301.4,2.559,0.25,11.37,105.044,12.19,13.01,21.7,0,110.2,13.38,12.98,263.4
"2009-01-03 00:31:30",507304,7.252,302.5,4.179,0.521,12.2,105.0432,12.18,13.15,21.87,0,110.2,13.38,12.98,264.5
"2009-01-03 00:32:00",507305,7.798,301.3,6.829,1.334,13.66,105.0432,12.18,13.05,21.1,0,110.2,13.34,12.98,263.3
"2009-01-03 00:32:30",507306,7.044,302.8,9.62,1.007,15.53,105.044,12.19,13.24,20.9,0,110.1,13.34,12.98,264.8
"2009-01-03 00:33:00",507307,6.375,304.1,6.156,0.981,12.44,105.0485,12.2,13.11,21.04,0,110.2,13.34,12.99,266.1
"2009-01-03 00:33:30",507308,6.073,301.1,4.45,1.101,12.98,105.0468,12.19,13.27,21.17,0,110.2,13.34,12.99,263.1
"2009-01-03 00:34:00",507309,7.805,300.6,6.818,1.36,14.74,105.0722,12.26,13.17,20.6,0,110.2,13.34,13.05,262.6
"2009-01-03 00:34:30",507310,6.715,303,10.45,1.466,13.28,105.0779,12.27,13.18,20.88,0,110.2,13.34,13.07,265.0
"2009-01-03 00:35:00",507311,5.777,293.2,2.206,0.113,11.55,105.0779,12.27,13.19,20.6,0,110.2,13.38,13.07,255.2
"2009-01-03 00:35:30",507312,6.217,294.2,1.425,0.294,11.72,105.0779,12.27,13.14,20.48,0,110.2,13.38,13.07,256.2
"2009-01-03 00:36:00",507313,6.424,293.1,2.959,0.185,12.2,105.1004,12.33,13.29,20.8,0,110.2,13.38,13.12,255.1
"2009-01-03 00:36:30",507314,8.51,291,8.35,1.171,14.4,105.1117,12.36,13.28,20.91,0,110.2,13.34,13.15,253.0
"2009-01-03 00:37:00",507315,8.46,298.6,5.303,1.576,14.96,105.1117,12.36,13.46,21.36,0,110.2,13.35,13.15,260.6
"2009-01-03 00:37:30",507316,8.8,307.8,8.56,1.311,14.73,105.1117,12.36,13.33,21.48,0,110.2,13.34,13.15,269.8
"2009-01-03 00:38:00",507317,8.22,299.6,7.904,1.418,14.36,105.1106,12.36,13.38,21.46,0,110.2,13.35,13.15,261.6
"2009-01-03 00:38:30",507318,8.44,302.6,5.518,1.083,15.52,105.086,12.29,13.41,21.43,0,110.2,13.34,13.09,264.6
"2009-01-03 00:39:00",507319,6.547,288.9,4.311,0.695,11.46,105.079,12.27,13.19,21.09,0,110.2,13.34,13.07,250.9
"2009-01-03 00:39:30",507320,5.95,286.1,2.851,0.163,11.37,105.0781,12.27,13.22,21.07,0,110.1,13.38,13.07,248.1
"2009-01-03 00:40:00",507321,5.8,288.5,2.403,0.151,11.53,105.0779,12.27,13.19,21.18,0,110.2,13.38,13.07,250.5
"2009-01-03 00:40:30",507322,6.388,287.4,5.166,0.976,13.32,105.0779,12.27,13.34,21.31,0,110.2,13.34,13.07,249.4
"2009-01-03 00:41:00",507323,8.42,293.6,6.469,1.222,15.91,105.0785,12.27,13.37,21.2,0,110.2,13.34,13.07,255.6
"2009-01-03 00:41:30",507324,9.47,287.6,6.581,1.383,14.63,105.0781,12.27,13.3,21.14,0,110.2,13.34,13.07,249.6
"2009-01-03 00:42:00",507325,9.64,290,5.747,1.349,13.59,105.079,12.27,13.23,21.21,0,110.2,13.34,13.07,252.0
"2009-01-03 00:42:30",507326,9.35,298.6,9.2,1.474,15.15,105.0785,12.27,13.43,21.64,0,110.2,13.34,13.07,260.6
"2009-01-03 00:43:00",507327,8.05,295,6.133,1.49,13.45,105.0565,12.22,13.28,21.73,0,110.1,13.34,13.01,257.0
"2009-01-03 00:43:30",507328,6.759,281.2,2.062,0.274,11.43,105.0464,12.19,13.15,21.3,0,110.1,13.38,12.99,243.2
"2009-01-03 00:44:00",507329,6.962,278.8,4.458,0.668,11.61,105.0449,12.19,13.14,21.16,0,110.1,13.38,12.98,240.8
"2009-01-03 00:44:30",507330,6.766,281.7,6.27,1.257,13.61,105.0461,12.19,13.29,21.25,0,110.2,13.34,12.99,243.7
"2009-01-03 00:45:00",507331,7.945,284,6.768,1.219,15.02,105.0481,12.2,13.37,21.44,0,110.2,13.34,12.99,246.0
"2009-01-03 00:45:30",507332,7.28,274.5,6.274,1.309,13.63,105.0481,12.2,13.27,21.2,0,110.1,13.35,12.99,236.5
"2009-01-03 00:46:00",507333,5.861,276.1,1.677,0.255,11.59,105.0499,12.2,13.17,21.08,0,110.2,13.38,12.99,238.1
"2009-01-03 00:46:30",507334,7.33,288.6,7.16,1.239,14.88,105.0511,12.2,13.38,21.31,0,110.2,13.35,13.00,250.6
"2009-01-03 00:47:00",507335,7.043,286.2,8.64,1.253,13.97,105.0508,12.2,13.22,21.23,0,110.2,13.35,13.00,248.2
"2009-01-03 00:47:30",507336,5.704,277.5,1.814,0.12,11.43,105.0529,12.21,13.11,20.97,0,110.2,13.38,13.00,239.5
"2009-01-03 00:48:00",507337,5.839,282.9,2.44,0.118,11.21,105.0532,12.21,13.11,21.13,0,110.2,13.38,13.00,244.9
"2009-01-03 00:48:30",507338,5.742,287.4,2.029,0.231,11.37,105.049,12.2,13.1,21.47,0,110.1,13.39,12.99,249.4
"2009-01-03 00:49:00",507339,6.975,288.6,6.742,1.537,14.22,105.0265,12.14,13.2,21.45,0,110.1,13.35,12.93,250.6
"2009-01-03 00:49:30",507340,7.771,292.7,6.68,1.272,15.31,105.022,12.13,13.3,21.67,0,110.1,13.35,12.92,254.7
"2009-01-03 00:50:00",507341,6.563,285.5,8.49,1.274,13.32,105.022,12.13,13.12,21.48,0,110.1,13.35,12.92,247.5
"2009-01-03 00:50:30",507342,7.056,288.3,7.531,1.345,13.56,105.0253,12.14,13.12,21.39,0,110.1,13.35,12.93,250.3
"2009-01-03 00:51:00",507343,7.534,290.5,5.38,1.28,15.03,105.0196,12.12,13.26,21.49,0,110.1,13.35,12.92,252.5
"2009-01-03 00:51:30",507344,5.956,277.6,3.477,0.636,11.65,105.0127,12.1,13.15,21.2,0,110.1,13.39,12.90,239.6
"2009-01-03 00:52:00",507345,5.461,276.4,1.794,0.188,11.14,105.0104,12.1,13.01,21.11,0,110.1,13.39,12.89,238.4
"2009-01-03 00:52:30",507346,5.412,275.4,1.454,0.155,11.4,105.0079,12.09,13.01,21.13,0,110.1,13.39,12.89,237.4
"2009-01-03 00:53:00",507347,5.783,269.9,1.559,0.203,11.7,105.0096,12.1,13.06,21.14,0,110.1,13.39,12.89,231.9
"2009-01-03 00:53:30",507348,7.471,278.4,6.564,1.306,15.2,105.0171,12.12,13.28,21.3,0,110.1,13.35,12.91,240.4
"2009-01-03 00:54:00",507349,6.764,277.8,6.39,1.389,14.14,105.0244,12.13,13.15,21.24,0,110.1,13.35,12.93,239.8
"2009-01-03 00:54:30",507350,4.801,274.9,1.846,0.206,11.38,105.0223,12.13,13,21.3,0,110.1,13.39,12.92,236.9
"2009-01-03 00:55:00",507351,5.971,286.1,8.31,1.313,13.39,105.0086,12.09,13.14,21.78,0,110.1,13.35,12.89,248.1
"2009-01-03 00:55:30",507352,6.697,291.3,7.094,1.284,14.94,105.0018,12.08,13.2,21.66,0,110.1,13.35,12.87,253.3
"2009-01-03 00:56:00",507353,4.942,280.1,3.225,0.557,11.03,105.005,12.09,12.97,21.35,0,110.1,13.35,12.88,242.1
"2009-01-03 00:56:30",507354,4.556,285.2,2.487,0.214,10.95,105.0044,12.08,12.98,21.43,0,110.1,13.38,12.88,247.2
"2009-01-03 00:57:00",507355,4.804,287.1,2.299,0.256,11.19,105.0077,12.09,12.98,21.43,0,110.1,13.38,12.89,249.1
"2009-01-03 00:57:30",507356,6.087,289.8,5.801,1.101,12.22,105.0077,12.09,12.95,21.49,0,110.1,13.35,12.89,251.8
"2009-01-03 00:58:00",507357,6.411,288.4,6.706,1.29,13.72,105.0074,12.09,13.09,21.68,0,110.1,13.35,12.89,250.4
"2009-01-03 00:58:30",507358,6.405,289.5,5.218,1.091,13.45,105.008,12.09,13.1,21.67,0,110.1,13.35,12.89,251.5
"2009-01-03 00:59:00",507359,6.359,294.7,5.674,1.116,12.55,105.0029,12.08,13.07,21.82,0,110.1,13.35,12.87,256.7
"2009-01-03 00:59:30",507360,7.631,301.7,6.193,1.218,14.37,104.9824,12.03,13.13,22.01,0,110.1,13.35,12.82,263.7
"2009-01-03 01:00:00",507361,6.993,300.6,7.472,1.245,13.34,104.9765,12.01,13.05,22.01,0,110.1,13.35,12.81,262.6
"2009-01-03 01:00:30",507362,5.832,288.4,1.572,0.159,11.03,104.9777,12.02,12.92,21.78,0,110.1,13.38,12.81,250.4
"2009-01-03 01:01:00",507363,5.66,289.4,1.359,0.136,11.1,104.9774,12.01,12.88,21.75,0,110.1,13.38,12.81,251.4
"2009-01-03 01:01:30",507364,5.279,287.6,1.066,0.199,11.49,104.9777,12.02,12.89,21.73,0,110.2,13.39,12.81,249.6
"2009-01-03 01:02:00",507365,6.779,293.2,6.387,1.287,14.11,104.978,12.02,13.04,21.81,0,110.1,13.35,12.81,255.2
"2009-01-03 01:02:30",507366,5.558,287.4,4.426,0.931,12.13,104.978,12.02,12.93,21.81,0,110.1,13.36,12.81,249.4
"2009-01-03 01:03:00",507367,6.87,292.3,6.921,1.388,14.18,104.9777,12.02,13.01,21.69,0,110.1,13.36,12.81,254.3
"2009-01-03 01:03:30",507368,6.884,294.8,5.881,1.331,14.28,104.978,12.02,13.1,21.77,0,110.1,13.36,12.81,256.8
"2009-01-03 01:04:00",507369,7.327,294.5,7.114,1.198,14.81,104.978,12.02,13.13,21.88,0,110.1,13.36,12.81,256.5
"2009-01-03 01:04:30",507370,6.264,288,4.717,0.952,11.67,104.978,12.02,12.88,21.68,0,110.1,13.36,12.81,250.0
"2009-01-03 01:05:00",507371,6.115,285.9,2.46,0.351,11.07,104.978,12.02,12.89,21.57,0,110.1,13.39,12.81,247.9
"2009-01-03 01:05:30",507372,7.603,287.3,6.03,1.317,12.62,104.978,12.02,12.91,21.4,0,110.1,13.36,12.81,249.3
"2009-01-03 01:06:00",507373,7.347,286.2,4.088,1.083,12,104.978,12.02,12.95,21.47,0,110.1,13.36,12.81,248.2
"2009-01-03 01:06:30",507374,7.861,290.7,7.005,1.477,14.07,104.978,12.02,13.05,21.56,0,110.1,13.36,12.81,252.7
"2009-01-03 01:07:00",507375,7.437,291.6,6.242,1.26,14.07,104.978,12.02,12.98,21.48,0,110.1,13.36,12.81,253.6
"2009-01-03 01:07:30",507376,8.21,295.8,6.448,1.139,15.66,104.9788,12.02,13.11,20.72,0,110.1,13.36,12.81,257.8
"2009-01-03 01:08:00",507377,7.967,288.6,10.01,1.499,15.11,105.0096,12.1,13.1,19.65,0,110.1,13.36,12.89,250.6
"2009-01-03 01:08:30",507378,5.877,268.2,5.798,1.017,12.44,105.022,12.13,13.07,20.3,0,110.1,13.36,12.92,230.2
"2009-01-03 01:09:00",507379,5.208,272.4,3.313,0.602,11.19,105.0446,12.19,12.98,20.15,0,110.1,13.39,12.98,234.4
"2009-01-03 01:09:30",507380,5.921,267.8,1.862,0.33,11.32,105.0457,12.19,12.99,20.41,0,110.1,13.39,12.98,229.8
"2009-01-03 01:10:00",507381,6.222,264.8,6.888,0.78,12.46,105.057,12.22,13.16,19.76,0,110.1,13.39,13.01,226.8
"2009-01-03 01:10:30",507382,7.522,275,10.26,1.406,14.07,105.0779,12.27,13.06,19.53,0,110.1,13.36,13.07,237.0
"2009-01-03 01:11:00",507383,6.219,272.4,5.037,0.929,13.11,105.0796,12.28,13.31,20.07,0,110.1,13.36,13.07,234.4
"2009-01-03 01:11:30",507384,7.563,285.2,6.393,1.299,14.39,105.0796,12.28,13.17,20.22,0,110.1,13.36,13.07,247.2
"2009-01-03 01:12:00",507385,8.32,287.9,5.763,1.2,15.48,105.0796,12.28,13.39,20.82,0,110.1,13.36,13.07,249.9
"2009-01-03 01:12:30",507386,8.14,288.1,6.798,1.3,14.59,105.0796,12.28,13.32,21.03,0,110.1,13.36,13.07,250.1
"2009-01-03 01:13:00",507387,6.721,285.8,4.944,1.332,12.19,105.0652,12.24,13.16,21.2,0,110.1,13.36,13.03,247.8
"2009-01-03 01:13:30",507388,5.694,284.6,1.391,0.1,10.89,105.0457,12.19,13.07,21.46,0,110.1,13.39,12.98,246.6
"2009-01-03 01:14:00",507389,6.253,296.4,7.914,1.32,12.67,105.0234,12.13,13.06,21.7,0,110.1,13.35,12.93,258.4
"2009-01-03 01:14:30",507390,5.569,295.8,5.025,1.127,12.96,105.0102,12.1,13.18,21.99,0,110.1,13.35,12.89,257.8
"2009-01-03 01:15:00",507391,5.568,285.3,5.929,0.985,11.91,104.9828,12.03,12.98,21.53,0,110.1,13.35,12.82,247.3
"2009-01-03 01:15:30",507392,4.868,283,0.748,0.154,11.64,104.9783,12.02,13.06,21.24,0,110.1,13.39,12.81,245.0
"2009-01-03 01:16:00",507393,6.444,290.2,6.936,1.265,14.87,104.9797,12.02,13.05,21.11,0,110.1,13.35,12.81,252.2
"2009-01-03 01:16:30",507394,6.154,291,7.163,1.315,14.57,104.9927,12.05,13.15,21.17,0,110.1,13.36,12.85,253.0
"2009-01-03 01:17:00",507395,6.415,290,6.775,1.225,15.22,105.0045,12.08,13.16,21.31,0,110.1,13.35,12.88,252.0
"2009-01-03 01:17:30",507396,4.727,277.9,0.944,0.086,11.23,105.0079,12.09,12.96,21.2,0,110.1,13.39,12.89,239.9
"2009-01-03 01:18:00",507397,5.208,275.1,1.514,0.238,11.09,105.0042,12.08,12.96,21.29,0,110.1,13.39,12.88,237.1
"2009-01-03 01:18:30",507398,5.455,274,2.667,0.698,11.3,105.0003,12.07,12.94,21.19,0,110.1,13.36,12.87,236.0
"2009-01-03 01:19:00",507399,6.81,275.8,6.319,1.406,13.62,104.9873,12.04,13.11,21.38,0,110.1,13.37,12.83,237.8
"2009-01-03 01:19:30",507400,5.61,270.2,0.858,0.098,11.36,104.9794,12.02,12.94,21.2,0,110.1,13.4,12.81,232.2
"2009-01-03 01:20:00",507401,5.064,270.3,1.891,0.197,11.29,104.978,12.02,12.95,21.19,0,110.1,13.4,12.81,232.3
"2009-01-03 01:20:30",507402,6.067,271.5,7.281,1.29,13.96,104.978,12.02,13.05,21.26,0,110.1,13.37,12.81,233.5
"2009-01-03 01:21:00",507403,5.987,275.5,7.098,1.385,14.43,104.978,12.02,13.16,21.35,0,110.1,13.37,12.81,237.5
"2009-01-03 01:21:30",507404,6.205,275.7,6.175,1.265,14.45,104.9788,12.02,13.14,21.15,0,110.1,13.37,12.81,237.7
"2009-01-03 01:22:00",507405,4.612,269.5,1.753,0.14,11.07,104.9873,12.04,12.93,20.95,0,110.1,13.4,12.83,231.5
"2009-01-03 01:22:30",507406,4.411,274.6,2.894,0.213,11.03,104.9944,12.06,12.94,20.99,0,110.1,13.4,12.85,236.6
"2009-01-03 01:23:00",507407,4.923,277.3,5.198,1.139,12.39,104.989,12.04,13.1,21.23,0,110.1,13.37,12.84,239.3
"2009-01-03 01:23:30",507408,4.795,281,8.35,1.192,12.24,104.9788,12.02,12.96,21.31,0,110.1,13.37,12.81,243.0
"2009-01-03 01:24:00",507409,4.262,281.1,4.133,0.162,11.37,104.978,12.02,13,21.46,0,110.1,13.4,12.81,243.1
"2009-01-03 01:24:30",507410,4.005,282.9,2.609,0.125,11.05,104.978,12.02,12.94,21.49,0,110.1,13.4,12.81,244.9
"2009-01-03 01:25:00",507411,5.324,283.6,7.867,1.369,13.87,104.978,12.02,13.05,21.42,0,110.1,13.37,12.81,245.6
"2009-01-03 01:25:30",507412,4.009,272.1,4.009,0.725,12.46,104.978,12.02,13.1,20.94,0,110.1,13.37,12.81,234.1
"2009-01-03 01:26:00",507413,5.755,279.9,5.922,1.286,15.11,104.9785,12.02,13.18,20.93,0,110.1,13.37,12.81,241.9
"2009-01-03 01:26:30",507414,4.918,286.6,7.147,1.327,12.63,104.9791,12.02,12.94,21.4,0,110.1,13.37,12.81,248.6
"2009-01-03 01:27:00",507415,4.202,281.5,1.728,0.223,10.95,104.978,12.02,12.9,21.43,0,110.1,13.4,12.81,243.5
"2009-01-03 01:27:30",507416,4.865,279.8,2.943,0.585,11.02,104.978,12.02,12.9,21.43,0,110.1,13.37,12.81,241.8
"2009-01-03 01:28:00",507417,6.663,280.5,7.185,1.409,13.26,104.9752,12.01,13.05,21.56,0,110.1,13.37,12.80,242.5
"2009-01-03 01:28:30",507418,5.573,274.2,0.683,0.156,11.18,104.963,11.98,12.87,21.46,0,110.1,13.37,12.77,236.2
"2009-01-03 01:29:00",507419,5.032,273.1,1.623,0.224,11.02,104.9512,11.95,12.86,21.47,0,110.1,13.4,12.74,235.1
"2009-01-03 01:29:30",507420,5.939,274.7,9.2,1.294,13.52,104.9444,11.93,12.96,21.41,0,110.1,13.37,12.72,236.7
"2009-01-03 01:30:00",507421,5.317,267.5,5.688,1.065,13.37,104.9472,11.94,13.04,20.93,0,110.1,13.37,12.73,229.5
"2009-01-03 01:30:30",507422,5.688,265.2,7.218,1.284,14.91,104.9684,11.99,13.14,20.65,0,110.1,13.37,12.79,227.2
"2009-01-03 01:31:00",507423,5.186,257.3,8.27,1.33,13.43,104.978,12.02,12.98,20.31,0,110.1,13.37,12.81,219.3
"2009-01-03 01:31:30",507424,4.048,251.8,1.631,0.082,11.25,104.9924,12.05,12.89,19.99,0,110.1,13.4,12.85,213.8
"2009-01-03 01:32:00",507425,4.198,249.6,2.378,0.136,11.26,105.0118,12.1,12.93,19.96,0,110.1,13.4,12.90,211.6
"2009-01-03 01:32:30",507426,4.867,251.3,4.971,0.954,12.15,105.0195,12.12,13,19.85,0,110.1,13.37,12.92,213.3
"2009-01-03 01:33:00",507427,5.814,256.9,6.531,1.296,14.06,105.0435,12.18,13.12,19.85,0,110.1,13.37,12.98,218.9
"2009-01-03 01:33:30",507428,4.908,252.8,1.185,0.142,11.78,105.0457,12.19,13.01,19.78,0,110.1,13.4,12.98,214.8
"2009-01-03 01:34:00",507429,4.97,255.1,2.125,0.155,11.92,105.0531,12.21,13.03,19.98,0,110.1,13.37,13.00,217.1
"2009-01-03 01:34:30",507430,6.055,262.8,5.778,1.31,14.37,105.0782,12.27,13.21,20.21,0,110.1,13.37,13.07,224.8
"2009-01-03 01:35:00",507431,6.598,263.1,6.772,1.307,15.06,105.0796,12.28,13.28,20.16,0,110.1,13.37,13.07,225.1
"2009-01-03 01:35:30",507432,6.947,266.8,6.282,1.244,15.61,105.0979,12.32,13.34,20.1,0,110.1,13.37,13.12,228.8
"2009-01-03 01:36:00",507433,4.98,255.5,2.889,0.494,11.96,105.1137,12.36,13.18,19.82,0,110.1,13.37,13.16,217.5
"2009-01-03 01:36:30",507434,4.822,257.8,1.145,0.104,11.6,105.1134,12.36,13.19,19.81,0,110.1,13.41,13.16,219.8
"2009-01-03 01:37:00",507435,5.307,259.1,5.225,1.003,12.75,105.1146,12.37,13.37,19.95,0,110.1,13.37,13.16,221.1
"2009-01-03 01:37:30",507436,5.608,259.4,6.465,1.253,12.99,105.1163,12.37,13.27,19.83,0,110.1,13.37,13.17,221.4
"2009-01-03 01:38:00",507437,4.513,255.2,1.118,0.103,11.76,105.1157,12.37,13.33,19.85,0,110.1,13.41,13.16,217.2
"2009-01-03 01:38:30",507438,4.298,255.8,0.961,0.096,11.65,105.1137,12.36,13.31,19.84,0,110.1,13.41,13.16,217.8
"2009-01-03 01:39:00",507439,5.118,262.6,6.657,1.357,13.9,105.114,12.36,13.32,19.88,0,110.1,13.38,13.16,224.6
"2009-01-03 01:39:30",507440,4.513,260.9,5.96,1.056,13.21,105.1037,12.34,13.42,20.05,0,110.1,13.38,13.13,222.9
"2009-01-03 01:40:00",507441,5.427,269.3,6.514,1.307,14.73,105.0808,12.28,13.43,20.22,0,110.1,13.38,13.07,231.3
"2009-01-03 01:40:30",507442,5.297,271.1,7.068,1.377,13.78,105.0655,12.24,13.28,20.34,0,110.1,13.38,13.03,233.1
"2009-01-03 01:41:00",507443,3.808,264.3,1.385,0.087,11.01,105.0463,12.19,13.15,20.22,0,110.1,13.41,12.99,226.3
"2009-01-03 01:41:30",507444,4.639,268.6,6.57,1.275,12.01,105.0364,12.17,13.13,20.36,0,110.1,13.38,12.96,230.6
"2009-01-03 01:42:00",507445,4.347,266.2,2.797,0.664,10.98,105.0139,12.11,13.2,20.54,0,110.1,13.38,12.90,228.2
"2009-01-03 01:42:30",507446,5.316,267.8,8.62,1.295,13.37,105.0127,12.1,13.16,20.39,0,110.1,13.38,12.90,229.8
"2009-01-03 01:43:00",507447,4.353,260.1,0.47,0.069,11.28,105.0142,12.11,13.06,20.14,0,110.1,13.41,12.90,222.1
"2009-01-03 01:43:30",507448,4.764,263.6,5.225,0.814,12.5,105.0136,12.11,13.21,20.32,0,110.1,13.38,12.90,225.6
"2009-01-03 01:44:00",507449,5.267,264.8,6.503,1.288,13.03,105.016,12.11,13.06,20.2,0,110.2,13.38,12.91,226.8
"2009-01-03 01:44:30",507450,5.22,264.8,6.151,1.226,13.5,105.0145,12.11,13.24,20.44,0,110.1,13.38,12.90,226.8
"2009-01-03 01:45:00",507451,6.436,270.6,5.86,1.211,15.17,105.0142,12.11,13.29,20.58,0,110.1,13.38,12.90,232.6
"2009-01-03 01:45:30",507452,5.311,260.1,6.507,1.193,12.66,105.0166,12.11,13.08,19.85,0,110.1,13.38,12.91,222.1
"2009-01-03 01:46:00",507453,4.855,257.3,0.862,0.204,11.19,105.0205,12.12,13.03,19.44,0,110.1,13.41,12.92,219.3
"2009-01-03 01:46:30",507454,6.396,258.9,5.432,1.367,13.84,105.0411,12.18,13.21,19.43,0,110.1,13.37,12.97,220.9
"2009-01-03 01:47:00",507455,5.26,258.6,5.697,0.861,12.53,105.0513,12.2,13.22,19.37,0,110.1,13.37,13.00,220.6
"2009-01-03 01:47:30",507456,5.298,252.8,1.844,0.061,11.55,105.0582,12.22,13.09,19.21,0,110.1,13.41,13.02,214.8
"2009-01-03 01:48:00",507457,5.31,249.1,2.718,0.479,11.85,105.08,12.28,13.12,19.13,0,110.1,13.41,13.07,211.1